Powrót do katalogu

KSAT3U

AktywnyNaukaSSO
NORAD 56747·PAYLOAD·🇰🇷 South Korea
Ta nazwa satelity nie została jeszcze potwierdzona przez oficjalne źródła.

Wystrzelony May 25, 2023 z Naro Space Center

Loading…

Następne Przeloty (najbliższe 24 godziny)

TLE

ŚwieżeSource: Space-Track

Epoka: Sep 14, 2026, 20:46 UTC

1 56747U 23072E   26257.86541986  .00030053  00000-0  49844-3 0  9995
2 56747  97.4948 110.7295 0003406  43.2769 316.8751 15.52085122184275

Śledź KSAT3U w czasie rzeczywistym z AllMySat

Download on the App Store